Inquirer Daily News

Weather

Get conditions and forecasts for any City, State, ZIP code or Country:  
Northeast Philadelphia, PA
on Sunday, November 11, 2012

Sunday
Previous Day Next Day
Daily Summary
 ActualAverage (KTTN)Record (KTTN)
Temperature
Mean Temperature °F 47°F  
Max Temperature 69°F 57°F 74°F (2006)
Min Temperature 35°F 38°F 25°F (1973)
Degree Days
Heating Degree Days 13 18  
Month to date heating degree days 180  
Since 1 July heating degree days 577  
Cooling Degree Days 0 0  
Month to date cooling degree days 0  
Year to date cooling degree days 965  
Growing Degree Days2 (Base °F )  
Moisture
Dew Point 40°F   
Average Humidity 83    
Maximum Humidity 100    
Minimum Humidity 33    
Precipitation
Precipitation 0.00 in 0.10 in 1.46 in (1898)
Month to date precipitation 1.18  
Year to date precipitation 40.61  
Wind
Wind Speed 2 mph   
Max Wind Speed 8 mph   
Max Gust Speed mph   
Visibility 5 miles   
Events Fog   

Key: T is trace of precipitation, MM is missing value
Source: NWS Daily Summary
Time(EST)TemperatureDew PointHumidity Pressure Visibility Wind DirectionWind SpeedGust SpeedPrecipitationEvents Conditions
12:54 AM 37.9°F 36.0°F 93% 30.43 in 5.0 miles NE 3.5 mph - N/A   Clear
1:54 AM 37.9°F 36.0°F 93% 30.43 in 5.0 miles Calm Calm - N/A   Clear
2:54 AM 42.1°F 39.9°F 92% 30.42 in 3.0 miles Calm Calm - N/A   Clear
3:19 AM 41.0°F 39.2°F 93% 30.42 in 1.2 miles Calm Calm - N/A   Clear
3:27 AM 39.2°F 37.4°F 93% 30.42 in 0.2 miles Calm Calm - N/A Fog Fog
3:54 AM 39.0°F 37.0°F 93% 30.44 in 0.2 miles Calm Calm - N/A Fog Fog
4:25 AM 35.6°F 35.6°F 100% 30.44 in 0.2 miles Calm Calm - N/A Fog Fog
4:54 AM 36.0°F 35.1°F 97% 30.45 in 1.8 miles NE 3.5 mph - N/A   Mostly Cloudy
5:08 AM 35.6°F 35.6°F 100% 30.46 in 0.5 miles Calm Calm - N/A Fog Fog
5:20 AM 35.6°F 35.6°F 100% 30.46 in 0.8 miles ENE 4.6 mph - N/A   Mist
5:44 AM 35.6°F 35.6°F 100% 30.46 in 1.0 miles NE 3.5 mph - N/A   Mist
5:51 AM 37.4°F 35.6°F 93% 30.46 in 0.2 miles ENE 3.5 mph - N/A Fog Fog
5:54 AM 37.0°F 36.0°F 96% 30.47 in 0.2 miles ENE 3.5 mph - N/A Fog Fog
6:07 AM 35.6°F 35.6°F 100% 30.47 in 0.2 miles Calm Calm - N/A Fog Fog
6:41 AM 35.6°F 35.6°F 100% 30.47 in 0.2 miles Calm Calm - N/A Fog Fog
6:50 AM 35.6°F 35.6°F 100% 30.47 in 0.2 miles Calm Calm - N/A Fog Fog
6:54 AM 37.0°F 37.0°F 100% 30.48 in 0.2 miles Calm Calm - N/A Fog Fog
7:54 AM 43.0°F 43.0°F 100% 30.48 in 0.2 miles Calm Calm - N/A Fog Fog
8:19 AM 44.6°F 44.6°F 100% 30.49 in 0.2 miles Calm Calm - N/A Fog Fog
8:35 AM 46.4°F 46.4°F 100% 30.49 in 1.5 miles WSW 3.5 mph - N/A   Overcast
8:46 AM 46.4°F 46.4°F 100% 30.49 in 2.5 miles WSW 3.5 mph - N/A   Scattered Clouds
8:54 AM 48.0°F 48.0°F 100% 30.50 in 3.0 miles Calm Calm - N/A   Partly Cloudy
9:54 AM 54.0°F 46.9°F 77% 30.50 in 9.0 miles SSW 5.8 mph - N/A   Clear
10:54 AM 57.9°F 46.0°F 65% 30.49 in 10.0 miles WSW 4.6 mph - N/A   Clear
11:54 AM 61.0°F 46.0°F 58% 30.46 in 10.0 miles SW 5.8 mph - N/A   Clear
12:54 PM 64.4°F 44.6°F 49% 30.44 in 10.0 miles SW 3.5 mph - N/A   Clear
1:54 PM 66.0°F 44.1°F 45% 30.43 in 10.0 miles SSW 5.8 mph - N/A   Clear
2:54 PM 69.1°F 39.9°F 35% 30.43 in 10.0 miles SW 8.1 mph - N/A   Clear
3:54 PM 68.0°F 37.9°F 33% 30.44 in 10.0 miles SSW 5.8 mph - N/A   Clear
4:54 PM 64.0°F 39.0°F 40% 30.45 in 10.0 miles Calm Calm - N/A   Clear
5:54 PM 62.1°F 42.1°F 48% 30.45 in 10.0 miles South 3.5 mph - N/A   Clear
6:54 PM 57.9°F 46.0°F 65% 30.48 in 10.0 miles Calm Calm - N/A   Clear
7:54 PM 55.9°F 46.0°F 69% 30.48 in 10.0 miles South 3.5 mph - N/A   Clear
8:54 PM 53.1°F 44.1°F 71% 30.49 in 10.0 miles Calm Calm - N/A   Clear
9:54 PM 46.9°F 42.1°F 83% 30.49 in 10.0 miles Calm Calm - N/A   Clear
10:54 PM 45.0°F 41.0°F 86% 30.48 in 10.0 miles Calm Calm - N/A   Clear
11:54 PM 45.0°F 41.0°F 86% 30.48 in 10.0 miles Calm Calm - N/A   Clear
Astronomy
Sunrise:06:41 AM (EST) Moon Rise:03:52 AM (EST)11/11
Sunset:04:46 PM (EST) Moon Set:03:08 PM (EST)11/11
Moon Phase
Nov. 11 Nov. 13 Nov. 20 Nov. 28 Dec. 06

Copyright © 2014 The Weather Underground, Inc.